Tracking 19415 objects as of 16-Dec-2018
HD Live streaming from Space Station
objects crossing your sky now

UNSW-ECO


UNSW-ECO is no longer on orbit
UNSW-ECO is classified as:


NORAD ID: 42723
Int'l Code: 1998-067MC
Perigee: N/A
Apogee: N/A
Inclination: N/A
Period: N/A
Semi major axis: N/A
RCS: N/A
Launch date: November 20, 1998
Source: United States (US)
Launch site: TYURATAM MISSILE AND SPACE COMPLEX (TTMTR)
Decay date: 2018-12-03

Uplink (MHz):
Downlink (MHz): 436.525/2400.500
Beacon (MHz):
Mode: 4800bps GMSK
Call sign: ON02AU
Status: Active

aabbcc
Your satellite tracking list
Your tracking list is empty




NASA's NSSDC Master Catalog

Two Line Element Set (TLE):
1 42723U 98067MC  18337.56119802  .13780986  12541-4  29133-3 0  9992
2 42723  51.6259 187.6942 0006339 249.0867 110.9484 16.46458799 87542
Source of the keplerian elements: AMSAT